MM0ZIF Weather Reports


time (UTC)temp
F
wind
direction
speed
knots
gust
knots
rain 1hr
in
rain 24hr
in
rain mn
in
humidity
%
barometer
mb
20260508182504 46 164 2.6 6.1 0.00 0.06 0.04 76 1013.2
20260508182004 46 119 2.6 7.0 0.00 0.06 0.04 76 1013.2
20260508181504 46 182 2.6 7.0 0.00 0.06 0.04 76 1013.1
20260508181004 46 294 2.6 6.1 0.00 0.06 0.04 77 1012.9
20260508180505 46 25 1.7 7.8 0.00 0.06 0.04 78 1012.8
20260508180005 47 210 1.7 6.1 0.00 0.06 0.04 79 1012.8
20260508175504 47 224 1.7 6.1 0.00 0.06 0.04 80 1012.8
20260508175004 46 279 1.7 7.8 0.00 0.06 0.04 80 1012.7
20260508174004 45 294 1.7 6.1 0.00 0.06 0.04 82 1012.6
20260508173503 46 308 4.3 7.0 0.00 0.06 0.04 79 1012.6
20260508173004 46 301 1.7 7.0 0.00 0.06 0.04 77 1012.5
20260508172504 46 213 2.6 7.8 0.00 0.06 0.04 77 1012.4
20260508172004 46 270 2.6 7.8 0.00 0.06 0.04 78 1012.2
20260508171504 47 109 2.6 7.0 0.00 0.06 0.04 76 1012.2
20260508170504 48 110 1.7 8.7 0.00 0.06 0.04 73 1012.0
20260508170004 49 128 2.6 5.2 0.00 0.06 0.04 71 1011.9
20260508165004 48 303 2.6 6.1 0.00 0.06 0.04 69 1011.7
20260508164509 49 114 1.7 11.3 0.00 0.06 0.04 68 1011.5
20260508164010 48 92 1.7 8.7 0.00 0.06 0.04 69 1011.5
20260508163511 49 155 2.6 8.7 0.00 0.06 0.04 68 1011.4
20260508163009 50 85 2.6 7.0 0.00 0.06 0.04 68 1011.5
20260508162509 49 146 2.6 6.1 0.00 0.06 0.04 69 1011.4
20260508162009 49 123 2.6 7.8 0.00 0.06 0.04 70 1011.4
20260508161509 49 77 2.6 7.0 0.00 0.06 0.04 72 1011.3
20260508161009 49 209 2.6 6.1 0.00 0.06 0.04 71 1011.4
20260508160510 49 104 2.6 7.0 0.00 0.06 0.04 71 1011.2
20260508155509 49 116 2.6 6.1 0.00 0.06 0.04 68 1011.2
20260508154509 48 181 1.7 4.3 0.00 0.06 0.04 74 1011.1
20260508154009 48 149 2.6 6.1 0.00 0.06 0.04 73 1010.9
20260508153509 49 190 2.6 10.4 0.00 0.06 0.04 69 1010.8
20260508153010 49 96 2.6 6.1 0.00 0.06 0.04 68 1010.9
20260508152508 49 29 2.6 6.1 0.00 0.06 0.04 68 1010.7
20260508152009 49 123 2.6 6.1 0.00 0.07 0.04 66 1010.6
20260508151509 50 84 3.5 13.0 0.00 0.08 0.04 66 1010.7
20260508151009 50 273 2.6 7.0 0.00 0.11 0.04 67 1010.5
20260508150509 52 109 3.5 6.1 0.00 0.15 0.04 67 1010.5
20260508150008 53 7 2.6 5.2 0.00 0.15 0.04 66 1010.5
20260508145509 51 82 2.6 6.1 0.00 0.15 0.04 64 1010.4
20260508145009 51 56 2.6 7.0 0.00 0.15 0.04 65 1010.4
20260508144509 51 64 2.6 6.1 0.00 0.17 0.04 68 1010.2
20260508144009 49 110 1.7 8.7 0.00 0.17 0.04 72 1010.3
20260508143509 50 47 2.6 7.8 0.00 0.17 0.04 70 1010.1
20260508143009 51 99 2.6 7.0 0.00 0.18 0.04 69 1010.1
20260508142009 51 217 1.7 7.8 0.00 0.18 0.04 69 1010.1
20260508141509 50 180 2.6 7.0 0.00 0.18 0.04 68 1009.9
20260508140509 51 126 2.6 6.1 0.00 0.18 0.04 69 1009.8
20260508140008 51 82 3.5 7.8 0.00 0.19 0.04 71 1009.8
20260508135509 51 150 2.6 7.0 0.00 0.20 0.04 64 1009.7
20260508134508 50 245 2.6 7.8 0.00 0.22 0.04 69 1009.5
20260508134009 52 188 2.6 7.8 0.00 0.22 0.04 68 1009.3
20260508133508 51 90 2.6 7.0 0.00 0.23 0.04 66 1009.3
20260508133009 51 301 3.5 7.8 0.00 0.23 0.04 64 1009.2
20260508132508 51 139 2.6 7.0 0.00 0.24 0.04 65 1009.3
20260508132008 50 123 3.5 7.8 0.00 0.25 0.04 69 1009.1
20260508131509 51 73 2.6 5.2 0.00 0.25 0.04 70 1009.0
20260508130508 51 90 2.6 7.0 0.00 0.25 0.04 70 1008.9
20260508130008 51 113 2.6 7.8 0.00 0.25 0.04 68 1008.9
20260508125508 52 103 3.5 7.8 0.00 0.25 0.04 65 1009.0
20260508125008 51 135 3.5 7.8 0.00 0.25 0.04 67 1008.6
20260508124508 51 268 1.7 6.1 0.00 0.25 0.04 68 1008.5
20260508124009 51 124 2.6 7.0 0.00 0.25 0.04 68 1008.5
20260508123509 50 41 3.5 7.8 0.00 0.25 0.04 70 1008.3
20260508123008 51 88 2.6 7.8 0.00 0.25 0.04 70 1008.5
20260508122508 50 90 2.6 7.0 0.00 0.25 0.04 71 1008.4
20260508122008 49 25 2.6 7.0 0.00 0.25 0.04 72 1008.1
20260508121008 52 17 2.6 5.2 0.00 0.25 0.04 73 1008.1
20260508120508 51 44 4.3 8.7 0.00 0.25 0.04 73 1007.9
20260508120008 51 116 2.6 7.0 0.00 0.25 0.04 73 1008.0
20260508115508 49 96 3.5 7.0 0.00 0.25 0.04 70 1007.9
20260508115008 50 70 5.2 10.4 0.00 0.25 0.04 74 1007.8
20260508114509 53 99 2.6 6.1 0.00 0.25 0.04 70 1007.9
20260508114008 51 95 2.6 7.0 0.00 0.25 0.04 71 1007.7
20260508113508 50 88 2.6 6.1 0.00 0.25 0.04 76 1007.8
20260508113008 49 35 2.6 7.0 0.00 0.25 0.04 75 1007.5
20260508111508 48 50 2.6 6.1 0.00 0.25 0.04 75 1007.3
20260508111008 48 76 3.5 7.0 0.00 0.25 0.04 74 1007.2
20260508110007 48 87 1.7 5.2 0.00 0.25 0.04 82 1006.9
20260508105508 48 117 2.6 7.0 0.00 0.25 0.04 82 1007.1
20260508105007 51 253 2.6 7.0 0.00 0.25 0.04 74 1006.7
20260508104008 48 339 1.7 6.1 0.00 0.26 0.04 77 1006.8
20260508103508 48 44 2.6 7.0 0.00 0.26 0.04 78 1006.7
20260508103008 49 73 3.5 7.0 0.00 0.26 0.04 76 1006.4
20260508102508 49 6 2.6 7.8 0.00 0.26 0.04 77 1006.5
20260508102008 49 300 2.6 5.2 0.00 0.26 0.04 79 1006.4
20260508101508 49 44 2.6 7.0 0.00 0.26 0.04 78 1006.3
20260508100508 49 39 2.6 6.1 0.00 0.26 0.04 78 1006.0
20260508095507 49 121 2.6 7.0 0.00 0.26 0.04 77 1005.8
20260508095008 49 86 3.5 7.0 0.00 0.26 0.04 78 1005.9
20260508094507 49 112 1.7 7.0 0.00 0.26 0.04 78 1005.6
20260508093508 49 119 2.6 7.8 0.00 0.26 0.04 77 1005.4
20260508093008 48 47 1.7 5.2 0.00 0.26 0.04 82 1005.4
20260508092008 47 88 1.7 7.0 0.00 0.26 0.04 84 1005.1
20260508091508 48 89 1.7 8.7 0.00 0.26 0.04 86 1005.2
20260508091008 47 88 2.6 7.0 0.00 0.26 0.04 88 1004.9
20260508090007 47 63 1.7 7.0 0.00 0.26 0.04 88 1004.9
20260508085007 50 29 1.7 6.1 0.00 0.26 0.04 78 1004.6
20260508083508 48 131 2.6 7.8 0.00 0.26 0.04 77 1004.5
20260508083008 48 118 1.7 6.1 0.00 0.26 0.04 82 1004.4
20260508082507 48 83 1.7 5.2 0.00 0.26 0.04 84 1004.2
20260508082008 47 75 1.7 6.1 0.00 0.26 0.04 86 1004.1
20260508081507 48 39 1.7 5.2 0.00 0.26 0.04 86 1003.9
20260508081007 50 127 2.6 7.0 0.00 0.26 0.04 81 1003.9
20260508080507 50 43 2.6 7.0 0.00 0.26 0.04 86 1003.9
20260508080007 48 120 1.7 4.3 0.00 0.26 0.04 89 1003.6
20260508075507 47 77 0.9 4.3 0.00 0.26 0.04 90 1003.5
20260508075007 47 99 0.9 7.0 0.00 0.26 0.04 90 1003.7
20260508074507 48 109 2.6 6.1 0.00 0.26 0.04 87 1003.4
20260508074007 49 103 2.6 7.8 0.00 0.26 0.04 86 1003.1
20260508073507 48 96 1.7 7.0 0.01 0.26 0.04 87 1003.1
20260508073007 47 158 0.9 5.2 0.01 0.26 0.04 89 1003.0
20260508072508 47 169 2.6 5.2 0.01 0.26 0.04 90 1002.8
20260508072007 47 155 1.7 2.6 0.01 0.26 0.04 92 1002.8
20260508071507 47 57 0.0 5.2 0.01 0.26 0.04 93 1002.6
20260508071007 47 356 0.9 6.1 0.01 0.26 0.04 94 1002.7
20260508070507 46 314 0.9 5.2 0.01 0.26 0.04 94 1002.6
20260508065508 46 130 0.0 2.6 0.01 0.26 0.04 94 1002.5
20260508065007 46 199 0.9 2.6 0.01 0.26 0.04 94 1002.4
20260508064506 46 145 0.9 7.0 0.01 0.26 0.04 93 1002.2
20260508064007 47 205 2.6 7.0 0.01 0.26 0.04 92 1002.2
20260508063506 48 122 2.6 7.0 0.00 0.25 0.03 91 1002.1
20260508063007 47 131 1.7 6.1 0.00 0.25 0.03 93 1002.0
20260508062506 47 148 1.7 5.2 0.00 0.25 0.03 93 1001.9
20260508062007 46 162 0.9 5.2 0.00 0.25 0.03 94 1001.7
20260508061507 46 162 1.7 6.1 0.00 0.25 0.03 94 1001.7
20260508061007 46 36 0.9 5.2 0.00 0.25 0.03 95 1001.8
20260508060507 46 179 1.7 6.1 0.00 0.25 0.03 95 1001.7
20260508060007 45 164 2.6 5.2 0.00 0.25 0.03 95 1001.6
20260508055506 45 164 2.6 5.2 0.00 0.25 0.03 95 1001.4
20260508055007 45 164 1.7 2.6 0.00 0.25 0.03 95 1001.3
20260508054507 45 164 1.7 2.6 0.00 0.25 0.03 95 1001.3
20260508053007 44 197 1.7 2.6 0.00 0.25 0.03 95 1001.1
20260508052507 44 218 0.9 2.6 0.00 0.25 0.03 95 1001.2
20260508051507 44 188 2.6 7.8 0.00 0.25 0.03 95 1000.9
20260508051006 44 153 1.7 7.0 0.00 0.25 0.03 95 1000.8
20260508050506 44 159 0.9 6.1 0.00 0.25 0.03 95 1000.8
20260508045507 44 133 0.9 4.3 0.01 0.25 0.03 95 1000.6
20260508045006 44 126 0.9 2.6 0.01 0.25 0.03 95 1000.9
20260508044507 44 36 0.0 4.3 0.01 0.25 0.03 95 1000.7
20260508044006 44 180 0.9 4.3 0.01 0.25 0.03 95 1000.6
20260508043506 44 157 0.9 4.3 0.01 0.25 0.03 96 1000.7
20260508043007 44 193 0.9 4.3 0.01 0.25 0.03 96 1000.7
20260508042507 44 128 0.9 1.7 0.01 0.25 0.03 96 1000.6
20260508042007 43 210 0.9 2.6 0.01 0.25 0.03 96 1000.5
20260508041507 43 166 0.0 0.0 0.01 0.25 0.03 96 1000.5
20260508041006 43 166 0.0 0.0 0.01 0.25 0.03 96 1000.5
20260508040506 43 166 0.0 0.9 0.01 0.25 0.03 96 1000.6
20260508040007 43 122 0.0 0.9 0.02 0.25 0.03 96 1000.5
20260508035506 43 163 0.0 0.0 0.01 0.24 0.02 96 1000.5
20260508035007 43 311 0.0 0.0 0.01 0.24 0.02 96 1000.3
20260508034506 43 323 0.0 0.9 0.01 0.24 0.02 95 1000.1
20260508034007 44 148 0.0 1.7 0.01 0.24 0.02 95 1000.2
20260508033507 44 200 0.9 4.3 0.01 0.24 0.02 95 1000.1
20260508032506 44 179 3.5 6.1 0.01 0.24 0.02 95 1000.2
20260508032006 44 158 4.3 6.1 0.01 0.24 0.02 94 1000.2
20260508031506 44 146 3.5 5.2 0.01 0.24 0.02 92 1000.1
20260508031006 44 137 4.3 5.2 0.01 0.24 0.02 92 1000.2
20260508030506 44 137 4.3 6.1 0.01 0.24 0.02 92 999.9
20260508025006 44 201 2.6 6.1 0.01 0.23 0.01 91 999.7
20260508024506 44 163 4.3 7.8 0.01 0.23 0.01 92 999.6
20260508023506 44 169 5.2 7.8 0.01 0.23 0.01 93 999.5
20260508023006 44 169 5.2 7.8 0.01 0.23 0.01 93 999.3
20260508022506 44 169 5.2 7.8 0.01 0.23 0.01 93 999.6
20260508022006 45 161 4.3 7.0 0.01 0.23 0.01 92 999.3
20260508021506 45 161 4.3 7.0 0.01 0.23 0.01 92 999.4
20260508021006 45 161 4.3 7.0 0.01 0.23 0.01 92 999.5
20260508020505 45 161 4.3 7.0 0.01 0.23 0.01 92 999.5
20260508020006 45 133 3.5 7.8 0.01 0.23 0.01 92 999.4
20260508015506 45 304 1.7 11.3 0.00 0.22 0.00 90 999.5
20260508015005 45 146 4.3 12.2 0.00 0.22 0.00 90 999.3
20260508014506 45 154 3.5 8.7 0.00 0.22 0.00 89 999.4
20260508014007 44 152 2.6 12.2 0.00 0.22 0.00 90 999.3
20260508013506 44 162 2.6 12.2 0.00 0.22 0.00 90 999.2
20260508013006 45 189 3.5 10.4 0.00 0.22 0.00 90 999.0
20260508012505 45 96 1.7 6.1 0.00 0.22 0.00 91 999.1
20260508012006 45 81 0.9 7.8 0.00 0.22 0.00 91 999.3
20260508011505 45 217 2.6 7.8 0.00 0.22 0.00 91 999.2
20260508010505 45 228 2.6 7.0 0.00 0.22 0.00 90 999.1
20260508010006 46 171 3.5 13.0 0.00 0.22 0.00 89 998.9
20260508005505 46 246 2.6 7.8 0.00 0.22 0.00 88 999.0
20260508005006 46 145 3.5 10.4 0.00 0.22 0.00 88 999.0
20260508004006 46 220 2.6 8.7 0.00 0.22 0.00 88 998.7
20260508003506 46 178 2.6 10.4 0.00 0.22 0.00 88 998.8
20260508003006 45 61 2.6 8.7 0.00 0.22 0.00 89 998.8
20260508002505 45 138 2.6 13.0 0.00 0.22 0.00 89 998.7
20260508002006 45 173 2.6 7.8 0.00 0.22 0.00 89 998.6
20260508001505 45 41 2.6 7.0 0.00 0.22 0.00 87 998.6
20260508000505 45 159 3.5 12.2 0.00 0.22 0.00 86 998.7
20260508000006 45 132 2.6 8.7 0.00 0.22 0.00 87 998.5
20260507235505 45 172 4.3 8.7 0.00 0.22 0.00 87 998.6
20260507234005 46 165 5.2 13.9 0.00 0.22 0.00 87 998.5
20260507233506 46 187 5.2 13.9 0.00 0.22 0.00 87 998.6
20260507233006 46 140 4.3 8.7 0.00 0.22 0.00 88 998.7
20260507232505 45 174 4.3 13.0 0.00 0.22 0.00 88 998.6
20260507232005 45 113 4.3 11.3 0.00 0.22 0.00 90 998.6
20260507231506 45 174 5.2 10.4 0.00 0.22 0.00 90 998.5
20260507231005 45 138 4.3 10.4 0.00 0.22 0.00 90 998.6
20260507230006 45 176 5.2 11.3 0.00 0.22 0.00 89 998.6
20260507225506 46 163 3.5 12.2 0.00 0.22 0.22 89 998.7
20260507224506 46 175 4.3 11.3 0.00 0.22 0.22 86 998.6
20260507224005 46 158 5.2 12.2 0.00 0.22 0.22 86 998.4
20260507223505 46 143 3.5 12.2 0.01 0.23 0.22 87 998.5
20260507223006 46 146 4.3 11.3 0.01 0.23 0.22 86 998.6
20260507222506 46 163 2.6 12.2 0.01 0.25 0.22 87 998.5
20260507222005 46 174 4.3 13.0 0.01 0.29 0.22 87 998.5
20260507221505 46 121 5.2 8.7 0.01 0.30 0.22 88 998.5
20260507221005 46 98 3.5 10.4 0.01 0.31 0.22 89 998.5
20260507220005 46 143 4.3 11.3 0.01 0.32 0.22 90 998.4
20260507215505 46 156 2.6 13.9 0.01 0.33 0.22 91 998.5
20260507215005 46 196 2.6 11.3 0.01 0.33 0.22 91 998.5
20260507214505 46 156 2.6 11.3 0.01 0.34 0.22 91 998.5
20260507214005 47 19 4.3 11.3 0.01 0.34 0.22 89 998.7
20260507213505 47 161 7.0 11.3 0.00 0.33 0.21 88 998.5
20260507213005 47 156 5.2 11.3 0.00 0.33 0.21 88 998.4
20260507212504 46 116 2.6 8.7 0.00 0.33 0.21 88 998.3
20260507212005 46 191 2.6 8.7 0.00 0.33 0.21 88 998.4
20260507211505 46 152 4.3 8.7 0.00 0.33 0.21 88 998.4
20260507210505 46 125 4.3 7.8 0.00 0.33 0.21 88 998.4
20260507210005 46 168 4.3 8.7 0.01 0.33 0.21 88 998.4
20260507205505 46 170 4.3 11.3 0.01 0.33 0.21 89 998.5
20260507205005 46 99 4.3 10.4 0.01 0.33 0.21 90 998.4
20260507204505 46 168 2.6 7.0 0.01 0.33 0.21 90 998.2
20260507204004 46 192 2.6 7.0 0.01 0.33 0.21 91 998.4
20260507203005 46 56 1.7 8.7 0.01 0.33 0.21 91 998.2
20260507202505 46 74 2.6 13.9 0.01 0.33 0.21 91 998.2
20260507202005 46 192 3.5 13.9 0.01 0.33 0.21 91 998.3
20260507201504 46 149 4.3 7.8 0.01 0.33 0.21 91 998.3
20260507200505 47 347 2.6 11.3 0.01 0.33 0.21 89 998.2
20260507200005 48 153 3.5 8.7 0.00 0.32 0.20 86 998.4
20260507195505 48 147 4.3 7.8 0.00 0.32 0.20 84 998.3
20260507195005 48 166 2.6 11.3 0.00 0.32 0.20 83 998.1
20260507194505 48 173 3.5 10.4 0.00 0.32 0.20 83 998.0
20260507194005 48 120 2.6 8.7 0.00 0.32 0.20 84 998.1
20260507193505 48 190 2.6 7.8 0.00 0.32 0.20 84 998.1
20260507193005 48 76 4.3 12.2 0.00 0.32 0.20 83 997.9
20260507192505 48 112 2.6 10.4 0.00 0.32 0.20 83 998.0
20260507192004 48 100 3.5 11.3 0.00 0.32 0.20 83 998.1
20260507191504 48 262 4.3 11.3 0.00 0.32 0.20 82 997.9
20260507191005 48 213 3.5 13.0 0.00 0.32 0.20 84 997.7
20260507190504 48 55 2.6 11.3 0.00 0.32 0.20 86 997.7
20260507190005 48 59 2.6 13.0 0.00 0.32 0.20 87 997.9
20260507185504 48 135 4.3 12.2 0.00 0.32 0.20 88 997.6
20260507185004 48 217 4.3 11.3 0.00 0.32 0.20 90 997.7
20260507184004 48 144 4.3 11.3 0.00 0.32 0.20 90 997.8
20260507183504 49 137 4.3 12.2 0.00 0.32 0.20 89 998.0
20260507183004 49 179 3.5 8.7 0.00 0.32 0.20 89 997.9